Location: Palomar Mountain Lodge
(33.3110°N, 116.8495°W)
Time: 06:18:57
(UTC-07:00)

Cosmos 1943 - Pass Details

Date: 19 May 2017
Orbit: 835 x 848 km, 71.0° (Epoch: 28 May)

Event Time Altitude Azimuth Distance (km) Brightness Sun altitude
Rises 20:57:12 0° 217° (SW) 3,379 6.4 -14.1°
Reaches altitude 10° 20:59:45 10° 223° (SW) 2,446 5.7 -14.5°
Maximum altitude 21:05:04 43° 295° (WNW) 1,154 4.5 -15.4°
Drops below altitude 10° 21:10:25 10° 6° (N) 2,450 6.0 -16.3°
Sets 21:12:59 0° 14° (NNE) 3,386 6.7 -16.7°
